Weather History for FLLS - January, 2013

Change the Weather History Date:

Saturday, January 12, 2013

  Actual Average Record
Temperature  
Mean Temperature 76 °F -  
Max Temperature 84 °F 78 °F 87 °F (2001)
Min Temperature 68 °F 64 °F 48 °F (2008)
Cooling Degree Days 11    
Growing Degree Days 26 (Base 50)    
Moisture  
Dew Point 70 °F    
Average Humidity 91    
Maximum Humidity 100    
Minimum Humidity 76    
Precipitation  
Precipitation 0.00 in - - ()
Sea Level Pressure  
Sea Level Pressure 29.98 in    
Wind  
Wind Speed 5 mph ()    
Max Wind Speed 12 mph    
Max Gust Speed -    
Visibility 6.8 miles    
Events Rain , Thunderstorm    
Averages and records for this station are not official NWS values.
T = Trace of Precipitation, MM = Missing Value Source: Averaged Metar Reports

Daily Weather History Graph

Daily Weather History Graph

Search for Another Location

Airport or City:

Trip Planner

Search our weather history database for the weather conditions in past years. The results will help you decide how hot, cold, wet, or windy it might be!

Date:

Astronomy

Jan. 12, 2013 Rise Set
Actual Time 5:45 AM CAT 6:43 PM CAT
Civil Twilight 5:22 AM CAT 7:06 PM CAT
Nautical Twilight 4:54 AM CAT 7:34 PM CAT
Astronomical Twilight 4:26 AM CAT 8:02 PM CAT
Moon 6:13 AM CAT (1/12) 7:17 PM CAT (1/12)
Length of Visible Light 13h 44m
Length of Day
12h 57m
New Moon, 1% of the Moon is Illuminated
Jan 12
New Moon
Jan 19
First Quarter
Jan 27
Full
Feb 3
Last Quarter
Feb 10
New

Hourly Weather History & Observations

Time (CAT) Temp. Heat Index Dew Point Humidity Pressure Visibility Wind Dir Wind Speed Gust Speed Precip Events Conditions
12:00 AM 71.6 °F - 69.8 °F 94% 29.98 in 6.2 mi West 4.6 mph - N/A   Mostly Cloudy
1:00 AM 69.8 °F - 69.8 °F 100% 29.98 in 6.2 mi NW 4.6 mph - N/A   Mostly Cloudy
2:00 AM 69.8 °F - 69.8 °F 100% 29.95 in 6.2 mi WNW 3.5 mph - N/A   Mostly Cloudy
5:00 AM 68.0 °F - 68.0 °F 100% 29.95 in - West 3.5 mph - N/A   Clear
6:00 AM 68.0 °F - 68.0 °F 100% 29.98 in - NNW 3.5 mph - N/A   Clear
7:00 AM 69.8 °F - 68.0 °F 94% 30.01 in 6.2 mi WNW 3.5 mph - N/A   Scattered Clouds
8:00 AM 71 °F - 70 °F 95%  in 6 mi NNW 4.6 mph - -  
8:00 AM 71.6 °F - 69.8 °F 94% 30.01 in 6.2 mi NNW 4.6 mph - N/A   Scattered Clouds
9:00 AM 73.4 °F - 71.6 °F 94% 30.01 in 6.2 mi North 9.2 mph - N/A   Scattered Clouds
10:00 AM 75.2 °F - 73.4 °F 94% 30.01 in 6.2 mi NW 9.2 mph - N/A   Scattered Clouds
11:00 AM 78.8 °F - 73.4 °F 83% 30.01 in 6.2 mi NW 5.8 mph - N/A   Scattered Clouds
12:00 PM 78.8 °F - 73.4 °F 83% 29.98 in 6.2 mi NNW 4.6 mph - N/A   Scattered Clouds
1:00 PM 82.4 °F 89.5 °F 75.2 °F 79% 29.95 in 6.2 mi WNW 10.4 mph - N/A   Scattered Clouds
2:00 PM 80 °F - 74 °F 76%  in 19 mi WNW 11.5 mph - -   Mostly Cloudy
2:00 PM 80.6 °F 85.4 °F 73.4 °F 79% 29.92 in 6.2 mi WNW 11.5 mph - N/A   Scattered Clouds
4:00 PM 73.4 °F - 68.0 °F 83% 29.92 in 6.2 mi WNW 8.1 mph - N/A   Mostly Cloudy
5:00 PM 75.2 °F - 69.8 °F 83% 29.92 in 6.2 mi West 5.8 mph - N/A   Mostly Cloudy
7:00 PM 71.6 °F - 69.8 °F 94% 29.98 in 6.2 mi West 9.2 mph - N/A   Mostly Cloudy
8:00 PM 71 °F - 69 °F 92%  in 6 mi WSW 5.8 mph - - Rain Light Rain Showers
8:00 PM 71.6 °F - 71.6 °F 100% 29.98 in 6.2 mi WSW 5.8 mph - N/A Rain , Thunderstorm Light Thunderstorms and Rain
10:00 PM 69.8 °F - 68.0 °F 94% 29.98 in 6.2 mi West 4.6 mph - N/A Thunderstorm Thunderstorm
11:00 PM 68.0 °F - 66.2 °F 94% 30.01 in 6.2 mi North 4.6 mph - N/A Thunderstorm Thunderstorm